Location: ???????
(41.4769°N, 20.5250°E)
Time: 09:00:34
(UTC+00:00)

Daily predictions for brighter satellites

Satellite Brightness Start Highest point End
(mag) Time Altitude Azimuth Time Altitude Azimuth Time Altitude Azimuth
Cosmos 1703 Rocket 3.9 18:29:29 10° SSW 18:33:47 70° W 18:38:07 10° N
STARLINK-1230 4.0 18:30:16 10° WSW 18:34:22 72° NW 18:38:31 10° NE
Meteor 2-9 Rocket 4.2 18:30:06 10° N 18:35:26 66° ENE 18:40:41 10° SSE
STARLINK-1070 4.1 18:31:46 10° WNW 18:35:49 55° SW 18:39:51 10° SE
ASTRO E2 4.4 18:35:14 10° SSW 18:37:45 16° S 18:40:15 10° SE
Cosmos 2221 Rocket 4.2 18:33:56 10° SSE 18:38:07 39° E 18:42:21 10° NNE
STARLINK-1243 4.1 18:35:16 10° WSW 18:39:22 66° NW 18:43:30 10° NE
STARLINK-1069 4.2 18:36:46 10° WNW 18:40:47 49° SW 18:44:46 10° SSE
Cosmos 1190 Rocket 4.3 18:35:52 10° NNW 18:41:05 71° WSW 18:46:17 10° S
STARLINK-1116 4.4 18:39:05 10° NW 18:43:04 43° NNE 18:47:02 10° ESE
STARLINK-1236 4.3 18:40:15 10° WSW 18:44:21 61° NW 18:48:28 10° NE
STARLINK-1085 4.4 18:41:48 10° WNW 18:45:46 45° SW 18:49:43 10° SSE
SL-4 R/B 1.5 18:44:06 10° NNW 18:47:05 49° ENE 18:49:44 11° SE
Cosmos 2278 Rocket 2.4 18:43:21 10° SSW 18:49:01 79° WNW 18:54:44 10° NNE
STARLINK-1094 4.2 18:49:01 10° NW 18:53:04 50° NNE 18:57:06 10° ESE
Sich 1 Rocket 3.7 18:48:32 10° N 18:53:09 78° E 18:57:42 10° SSE
Cosmos 1515 4.4 18:51:12 10° SSW 18:54:57 57° W 18:58:42 10° N
Resurs 01 Rocket 1.8 18:51:11 10° SSE 18:55:32 56° ENE 18:59:55 10° N
STARLINK-1117 4.1 18:53:58 10° NW 18:58:03 54° NNE 19:01:55 11° ESE
Okean 2 Rocket 3.3 18:54:25 10° N 18:58:44 53° E 19:03:01 10° SSE
GPS 2-04 Rocket1 3.3 18:55:49 10° WSW 18:58:57 31° S 19:01:44 13° ESE
Cosmos 2279 Rocket 4.3 18:53:31 10° N 18:59:34 50° ENE 19:05:34 10° SSE
SPOT 3 Rocket 3.7 18:57:45 10° S 19:02:53 77° WSW 19:08:04 10° NNW
STARLINK-1078 4.0 18:58:56 10° NW 19:03:03 59° NE 19:06:42 13° ESE
Cosmos 371 Rocket 3.2 18:59:35 10° SSW 19:04:25 80° ESE 19:09:19 10° NNE
Cosmos 1954 Rocket 4.2 18:59:29 10° NNW 19:04:46 76° WSW 19:10:03 10° SSE
STARLINK-1108 3.9 19:03:55 10° NW 19:08:02 64° NE 19:11:29 14° ESE
Spot 2 Rocket 4.2 19:03:52 12° SE 19:08:04 39° ENE 19:12:44 10° N
Terra 4.0 19:06:37 10° E 19:08:34 12° ENE 19:10:33 10° NE
BREEZE-M DEB (TANK) 4.3 19:08:16 14° ESE 19:08:40 15° ESE 19:11:23 10° E
SL-4 R/B 3.8 19:05:51 10° SSE 19:08:48 17° SE 19:11:50 10° E
H-2A R/B 4.3 19:08:10 10° SW 19:12:04 22° W 19:16:06 10° NW
STARLINK-1071 3.7 19:08:53 10° NW 19:13:01 70° NE 19:16:16 16° ESE
Cosmos 2151 Rocket 3.9 19:09:02 10° N 19:13:29 53° E 19:17:10 14° SSE
STARLINK-1110 3.7 19:12:39 10° NW 19:16:49 75° NE 19:19:54 17° ESE
Abrixas rocket 3.6 19:15:01 10° NW 19:17:40 29° NNE 19:20:18 10° E
Resurs 1-3 4.3 19:15:50 10° S 19:20:06 52° W 19:24:24 10° NNW
STARLINK-1124 3.6 19:18:50 10° NW 19:23:00 83° NE 19:25:50 20° SE
Cosmos 1634 Rocket 4.4 19:17:01 10° NNW 19:23:17 67° W 19:29:33 10° S
STARLINK-1122 3.6 19:23:48 10° NW 19:27:57 90° N 19:30:37 21° SE
Cosmos 1300 Rocket 3.6 19:24:11 10° N 19:28:38 82° W 19:32:31 13° S
Aureole 2 Rocket 2.0 19:27:54 10° S 19:31:01 69° ESE 19:34:01 10° NNE
NOSS 2-2 (D) 3.3 19:28:12 10° SSW 19:31:39 47° ESE 19:35:15 10° NE
Cosmos 1437 Rocket 2.6 19:28:54 10° S 19:32:40 82° E 19:36:30 10° NNE
STARLINK-1126 3.6 19:28:49 10° NW 19:32:59 83° SW 19:35:27 24° SE
Cosmos 304 Rocket 3.7 19:31:15 10° SSW 19:36:00 75° ESE 19:40:48 10° NNE
Cosmos 1378 4.2 19:35:06 23° ESE 19:36:09 27° E 19:39:20 10° NNE
STARLINK-1082 3.6 19:33:45 10° NW 19:37:53 76° SW 19:40:10 26° SE
Lacrosse 5 2.2 19:34:47 10° NW 19:39:45 57° SW 19:42:55 22° SSE
ISS -3.3 19:39:34 10° WNW 19:42:51 50° SW 19:44:06 31° SSE
STARLINK-1100 3.7 19:38:43 10° NW 19:42:51 69° SW 19:44:56 28° SE
CZ-2C R/B 4.4 19:38:54 10° N 19:43:57 35° WNW 19:48:59 10° SW
Cosmos 1674 Rocket 3.5 19:42:08 12° S 19:46:06 88° WNW 19:50:31 10° N
STARLINK-1083 3.8 19:43:44 10° WNW 19:47:50 63° SW 19:49:44 30° SSE
NOSS 2-2 (E) 3.1 19:45:22 10° SW 19:48:54 82° NW 19:52:48 10° NNE
Cosmos 1378 Rocket 3.5 19:45:49 18° S 19:49:01 75° E 19:53:25 10° NNE
EXPRESS MD2 3.9 19:47:57 10° WSW 19:50:53 56° NNW 19:56:20 10° ENE
STARLINK-1125 3.9 19:48:45 10° WNW 19:52:48 57° SW 19:54:32 31° SSE
Cosmos 2297 3.8 19:47:38 10° SSW 19:53:19 83° WNW 19:59:04 10° NNE
Cosmos 1943 Rocket 2.5 19:50:21 21° SSE 19:53:41 44° ESE 19:58:57 10° NE
Cosmos 1833 Rocket 4.1 19:50:25 10° NW 19:55:20 32° WSW 20:00:09 10° SSW
Cosmos 1766 4.2 19:52:43 10° N 19:56:22 33° ENE 19:57:24 29° ESE
IGS 5A 3.5 19:55:29 26° S 19:57:44 80° WSW 20:01:55 10° NNW
STARLINK-1109 4.0 19:53:45 10° WNW 19:57:46 51° SW 19:59:18 32° SSE
Landsat 7 3.9 19:57:48 24° S 20:00:41 78° WSW 20:05:29 10° NNW
BREEZE-M DEB 2.3 19:59:14 10° WSW 20:01:29 79° NNW 20:06:03 10° ENE
Cosmos 2082 Rocket 2.9 19:56:41 10° NW 20:02:10 48° WSW 20:06:02 19° S
STARLINK-1091 4.1 19:58:43 10° WNW 20:02:42 47° SW 20:04:04 33° S
Meteor 1-23 Rocket 4.3 19:58:52 11° SSW 20:04:17 81° W 20:09:57 10° N
STARLINK-1097 4.4 20:01:02 10° NW 20:05:02 45° NNE 20:07:07 24° E
OE (NEXTSAT) 4.4 20:02:26 10° SW 20:05:42 50° SSE 20:05:42 50° SSE
SeaSat 1 4.4 20:03:22 10° ENE 20:04:49 13° E 20:04:49 13° E
STARLINK-1072 4.3 20:03:46 10° WNW 20:07:41 42° SW 20:08:52 33° S
Cosmos 1975 Rocket 3.6 20:07:29 34° SE 20:08:31 40° E 20:12:39 10° NNE
Cosmos 2369 Rocket 2.6 20:07:22 29° SSE 20:09:36 42° ESE 20:14:54 10° NE
STARLINK-1099 4.3 20:05:59 10° NW 20:10:02 49° NNE 20:11:54 28° E
STARLINK-1096 4.4 20:08:47 10° WNW 20:12:38 38° SW 20:13:39 32° SSW
CZ-4B DEB 4.4 20:11:56 48° S 20:12:43 73° WSW 20:16:04 10° NNW
NOSS 2-2 (C) 3.8 20:10:03 10° SW 20:13:32 55° NW 20:17:19 10° NNE
STARLINK-1104 4.1 20:10:56 10° NW 20:15:00 53° NNE 20:16:40 31° E
SPOT 5 3.0 20:14:17 33° SSE 20:16:42 77° ENE 20:22:03 10° N
ATLAS 2AS CENTAUR R/B 3.5 20:13:12 26° SSE 20:16:43 38° ESE 20:23:55 10° NE
Cosmos 2026 Rocket 4.3 20:15:52 30° SSE 20:18:39 51° E 20:24:45 10° NNE
STARLINK-1144 4.0 20:15:55 10° NW 20:20:00 57° NNE 20:21:27 36° E
ATLAS CENTAUR R/B 3.7 20:23:28 12° ENE 20:23:28 12° ENE 20:23:55 10° ENE
ERS-1 Rocket 2.9 20:19:40 34° S 20:21:56 83° WSW 20:27:00 10° NNW
NOSS 3-2 (A) 4.3 20:15:16 10° NNW 20:22:48 65° NE 20:27:48 27° SE
Meteor 1-22 Rocket 4.3 20:18:39 10° N 20:24:31 67° ENE 20:26:47 37° SSE
STARLINK-1103 3.9 20:20:52 10° NW 20:24:59 62° NE 20:26:14 41° E
Okean 2 3.3 20:25:56 51° SSE 20:26:52 73° E 20:31:02 10° NNE
STARLINK-1101 3.7 20:25:50 10° NW 20:29:59 68° NE 20:31:00 47° E
Resurs 01 Rocket 4.2 20:30:10 10° WSW 20:32:22 13° W 20:34:34 10° WNW
Nadezhda 4 Rocket 4.5 20:28:28 13° SSW 20:33:48 56° W 20:39:50 10° N
USA 238 DEB 3.9 20:27:24 10° NNW 20:34:38 72° NE 20:38:25 32° SE
USA 238 4.0 20:27:30 10° NNW 20:34:45 71° NE 20:38:32 32° SE
STARLINK-1102 3.6 20:30:49 10° NW 20:34:58 74° NE 20:35:48 54° ESE
Cosmos 968 Rocket 4.5 20:31:17 10° N 20:35:59 34° ENE 20:37:31 28° E
Okean 1 Rocket 4.0 20:31:49 10° NNW 20:36:01 42° W 20:37:53 27° SW
Cosmos 1805 3.4 20:32:27 10° NNW 20:36:21 65° W 20:37:07 51° SSW
Cosmos 1470 4.0 20:33:10 10° NNE 20:36:30 28° ENE 20:36:30 28° ENE
STARLINK-1111 3.6 20:35:47 10° NW 20:39:56 80° NE 20:40:34 62° ESE
BREEZE-M DEB (TANK) 4.0 20:30:07 10° SSW 20:39:13 35° SSE 20:39:13 35° SSE
Cosmos 1455 Rocket 3.1 20:37:29 10° N 20:41:47 59° E 20:42:18 54° ESE
Meteor 2-13 Rocket 4.4 20:39:29 38° SSE 20:41:55 68° E 20:48:03 10° NNE
STARLINK-1073 3.5 20:40:46 10° NW 20:44:55 87° NE 20:45:22 71° ESE
SL-8 R/B 3.6 20:40:12 10° WNW 20:45:01 86° NNE 20:46:17 50° ESE
Terra 1.8 20:44:22 48° S 20:45:39 78° WSW 20:50:27 10° NNW
SL-4 R/B 2.3 20:43:13 10° SW 20:47:58 87° SE 20:52:50 10° NE
CARTOSAT-1 4.4 20:47:49 33° SW 20:49:03 41° W 20:53:09 10° NNW
Cosmos 1842 3.2 20:48:52 70° SW 20:49:14 80° W 20:53:08 10° N
Cosmos 1758 4.2 20:45:56 10° N 20:49:40 36° ENE 20:49:40 36° ENE
STARLINK-1121 3.4 20:45:44 10° NW 20:49:54 86° SW 20:50:08 78° SSE
ATLAS 3B CENTAUR R/B 3.7 20:40:13 10° WSW 20:50:20 31° SSW 20:50:57 30° S
Abrixas rocket 3.9 20:50:24 10° WNW 20:51:50 25° W 20:51:50 25° W
STARLINK-1106 3.5 20:50:45 10° NW 20:54:54 78° SW 20:54:56 78° SSW
Cosmos 2263 4.0 20:57:25 45° S 20:59:13 79° ESE 21:04:51 10° NNE
STARLINK-1112 3.6 20:55:42 10° NW 20:59:41 71° WSW 20:59:41 71° WSW
STARLINK-1128 3.8 21:00:41 10° WNW 21:04:28 62° WSW 21:04:28 62° WSW
Cosmos 1536 Rocket 3.9 21:08:36 50° ENE 21:08:36 50° ENE 21:12:32 10° NNE
Cosmos 1733 4.2 21:05:51 10° NNW 21:09:22 37° W 21:09:32 37° W
Meteor 1-21 4.2 21:07:51 45° SSW 21:09:41 80° W 21:15:19 10° N
STARLINK-1113 4.0 21:05:41 10° WNW 21:09:15 54° WSW 21:09:15 54° WSW
COSMOS 2455 3.1 21:09:44 45° ESE 21:10:08 46° ESE 21:15:52 10° NE
Cosmos 1271 Rocket 2.9 21:14:22 70° NNE 21:14:22 70° NNE 21:17:53 10° N
STARLINK-1119 4.2 21:10:43 10° WNW 21:14:04 47° W 21:14:04 47° W
Spot 4 4.2 21:14:22 48° E 21:14:57 51° ENE 21:19:39 10° N
Cosmos 1354 Rocket 4.5 21:10:03 10° N 21:15:11 49° ENE 21:16:12 43° E
Cosmos 1242 Rocket 3.1 21:15:26 54° WNW 21:15:26 54° WNW 21:18:51 10° N
Cosmos 1486 Rocket 3.9 21:12:05 10° NNW 21:17:24 80° WSW 21:18:13 63° S
Cosmos 1833 4.4 21:12:21 10° NNW 21:17:57 62° ENE 21:19:13 49° ESE
Cosmos 1544 Rocket 3.5 21:14:13 10° NNW 21:18:33 75° W 21:18:39 75° WSW
STARLINK-1114 4.5 21:15:42 10° WNW 21:18:49 41° W 21:18:49 41° W
Cosmos 1707 3.0 21:24:35 64° N 21:24:35 64° N 21:27:55 10° N
Cosmos 1417 Rocket 4.4 21:20:18 10° N 21:26:40 89° E 21:28:19 53° S
CENTAUR R/B 3.2 21:19:11 10° NW 21:27:25 86° NE 21:31:08 40° SE
SL-27 R/B 4.0 21:27:01 10° NW 21:29:28 30° WNW 21:29:28 30° WNW
ATLAS 3B R/B 3.4 21:23:52 10° NNW 21:30:24 46° NE 21:33:57 27° ESE
ALOS 2 3.6 21:30:24 34° ENE 21:30:29 34° ENE 21:34:27 10° N
NOSS 3-2 (C) 4.0 21:24:50 10° NW 21:32:34 81° WSW 21:35:37 44° SSE
Cosmos 1726 3.2 21:30:04 10° N 21:32:50 40° NE 21:32:50 40° NE
Meteor 1-16 Rocket 4.4 21:29:49 10° N 21:35:12 53° ENE 21:35:51 50° ESE
Cosmos 1867 3.7 21:31:43 10° NNW 21:37:10 67° NE 21:38:07 56° ESE
Cosmos 1992 Rocket 4.2 21:36:08 51° SW 21:37:17 67° WNW 21:42:29 10° NNE
Cosmos 1943 Rocket 4.0 21:32:53 10° WSW 21:37:35 28° NW 21:42:22 10° N
COSMOS 2487 4.0 21:34:44 10° N 21:37:03 31° NNE 21:37:03 31° NNE
NOSS 3-4 (A) 3.4 21:36:32 35° SW 21:39:09 75° NW 21:45:27 10° NNE
NOSS 3-4 (C) 3.4 21:36:40 36° SW 21:39:15 76° NW 21:45:33 10° NNE
SeaSat 1 2.5 21:38:53 10° NNE 21:43:49 76° WNW 21:44:34 62° WSW
EO 1 Del DPAF 4.0 21:41:13 10° N 21:44:29 48° NW 21:44:29 48° NW
Cosmos 2315 Rocket 4.3 21:44:50 10° N 21:50:55 54° ENE 21:52:08 47° ESE
RESURS DK-1 3.8 21:53:57 30° ENE 21:53:57 30° ENE 21:56:22 10° NE
Meteor 2-10 3.8 21:48:30 10° NNW 21:53:32 75° W 21:53:43 74° WSW
Cosmos 2369 Rocket 3.9 21:49:04 11° WSW 21:53:44 29° NW 21:58:38 10° N
BREEZE-M DEB (TANK) 4.3 21:51:24 10° NW 21:54:41 38° NNE 21:59:14 10° E
S3M 4.1 21:50:48 10° NNW 21:56:55 67° W 21:58:10 54° SSW
ATLAS CENTAUR R/B 2.1 21:59:35 51° WNW 21:59:45 51° NW 22:03:50 10° NNE
Cosmos 1626 4.4 22:01:28 17° ENE 22:01:28 17° ENE 22:02:57 10° NE
Cosmos 1025 Rocket 4.3 22:02:58 32° W 22:03:12 32° WNW 22:07:03 10° NNW
Cosmos 1340 Rocket 3.4 21:59:15 10° NNW 22:02:31 54° NNW 22:02:31 54° NNW
Exosat Rocket 4.3 21:55:28 10° NNW 22:04:34 89° ENE 22:06:21 55° SSE
Meteor 2-19 Rocket 4.5 22:03:37 56° SW 22:04:53 74° W 22:11:02 10° N
ATLAS 2AS CENTAUR R/B 3.6 22:00:30 13° SW 22:07:31 56° NW 22:15:20 10° NNE
Cosmos 1908 4.3 22:04:36 10° N 22:07:21 42° NNE 22:07:21 42° NNE
Nimbus 7 Rocket 4.4 22:02:45 10° NNE 22:08:50 80° WNW 22:10:04 58° SW
Cosmos 1953 3.4 22:07:43 10° NNW 22:10:41 38° WNW 22:10:41 38° WNW
Cosmos 2292 Rocket 4.5 22:13:24 37° NNW 22:13:24 37° NNW 22:15:37 10° N
BREEZE-M DEB (TANK) 3.5 22:04:09 10° WNW 22:11:56 65° W 22:11:56 65° W
FALCON 9 R/B 3.9 22:19:35 27° ESE 22:19:35 27° ESE 22:25:38 10° E
Cosmos 1809 Rocket 4.4 22:21:17 62° SE 22:22:07 70° E 22:28:17 10° NNE
ATLAS 5 CENTAUR R/B 3.7 22:21:46 21° WNW 22:22:17 22° NW 22:24:23 10° N
Cosmos 1777 Rocket 4.0 22:17:45 10° NNW 22:23:00 70° ENE 22:23:18 68° E
Cosmos 1892 Rocket 4.0 22:25:06 55° NE 22:25:06 55° NE 22:28:44 10° NNE
EO 1 Delta rocket 4.2 22:19:19 10° NNE 22:24:37 58° E 22:24:37 58° E
SL-4 R/B 4.2 22:23:51 10° W 22:28:11 32° NNW 22:32:30 10° NE
Cosmos 2228 3.4 22:25:07 10° N 22:28:36 59° NNW 22:28:36 59° NNW
Cosmos 1726 Rocket 3.9 22:25:50 10° N 22:29:30 63° N 22:29:30 63° N
Cosmos 921 Rocket 3.7 22:31:52 48° NE 22:31:52 48° NE 22:35:13 10° NNE
YAOGAN 11 4.4 22:31:51 60° NE 22:31:51 60° NE 22:35:43 10° N
Meteor 1-24 Rocket 3.6 22:33:05 65° ESE 22:33:14 65° E 22:38:38 10° NNE
Cosmos 1300 4.2 22:30:51 10° N 22:33:33 32° NE 22:33:33 32° NE
CZ-4C R/B 3.7 22:36:20 21° E 22:36:20 21° E 22:39:28 10° ENE
Resurs 1-4 Rocket 4.5 22:43:52 10° ENE 22:44:57 11° E 22:46:00 10° E
SJ 16-02 3.3 22:42:34 10° N 22:46:04 22° ENE 22:47:11 20° E
Cosmos 1674 4.4 22:48:20 27° NW 22:48:20 27° NW 22:50:52 10° NNW
STARLINK-1238 4.4 22:44:54 10° NW 22:48:47 50° NNE 22:48:47 50° NNE
Helios 1B rocket 3.3 22:46:56 10° NNE 22:50:09 45° ENE 22:50:09 45° ENE
Cosmos 1244 Rocket 4.4 22:51:03 65° SSW 22:52:03 82° W 22:58:15 10° N
STARLINK-1201 4.3 22:49:51 10° NW 22:53:33 52° N 22:53:33 52° N
USA 215 3.1 22:52:57 43° SE 22:55:22 88° SW 23:01:57 10° NW
COSMOS 2455 4.3 22:52:50 19° W 22:56:14 32° NW 23:01:35 10° NNE
Cosmos 1745 Rocket 4.2 22:55:32 49° SE 22:56:36 55° E 23:02:33 10° NNE
CZ-2D R/B 4.2 22:56:08 10° ENE 22:58:47 14° E 22:59:51 13° ESE
STARLINK-1206 4.3 22:54:50 10° NW 22:58:21 52° N 22:58:21 52° N
Helios 1A 4.1 23:01:35 36° WNW 23:01:35 36° WNW 23:04:36 10° NNW
Cosmos 2219 3.5 22:55:19 10° NNW 23:00:55 59° ENE 23:02:17 46° ESE
Meteor 2-16 Rocket 4.3 23:00:55 64° SSE 23:01:53 80° E 23:08:01 10° N
STARLINK-1205 4.3 22:59:47 10° NW 23:03:07 51° NNW 23:03:07 51° NNW
Cosmos 2297 Rocket 2.8 22:59:40 10° NNW 23:05:11 52° ENE 23:07:00 38° ESE
ALOS 2 4.5 23:07:47 20° WNW 23:07:47 20° WNW 23:10:15 10° NW
PSLV R/B 3.7 23:03:49 10° NNE 23:07:54 73° NNE 23:07:54 73° NNE
Lacrosse 4 Rocket 4.0 23:05:38 10° N 23:08:39 18° NE 23:11:35 10° E
STARLINK-1218 4.4 23:04:46 10° NW 23:07:55 48° NNW 23:07:55 48° NNW
Cosmos 1626 Rocket 3.8 23:11:50 63° NE 23:11:50 63° NE 23:15:40 10° NNE
Timation 2 Rocket 4.0 23:06:26 10° NNW 23:12:32 57° WSW 23:12:55 56° SW
Cosmos 2058 Rocket 3.7 23:08:16 10° NNW 23:11:58 49° WNW 23:11:58 49° WNW
Cosmos 1455 4.2 23:09:57 10° NNE 23:12:50 21° ENE 23:12:54 21° ENE
STARLINK-1254 4.5 23:09:44 10° NW 23:12:41 44° NW 23:12:41 44° NW
Meteor 2-5 Rocket 4.4 23:14:12 38° W 23:15:04 40° WNW 23:20:21 10° N
CENTAUR R/B 4.4 23:11:12 10° WNW 23:17:33 24° WSW 23:18:17 24° WSW
Cosmos 192 4.2 23:18:27 87° SE 23:18:28 88° ESE 23:23:29 10° NNE
ATLAS 3B R/B 3.3 23:14:44 10° NW 23:21:00 39° WSW 23:21:09 39° WSW
SL-16 R/B 3.9 23:19:17 15° ESE 23:23:36 33° ENE 23:28:59 10° N
Cosmos 1656 3.5 23:27:53 69° SSW 23:28:38 90° ENE 23:34:17 10° NNE
ATLAS CENTAUR R/B 2.7 23:28:06 10° NNW 23:30:47 45° NE 23:36:29 10° ESE
Cosmos 1386 Rocket 4.3 23:29:51 60° SSW 23:31:04 86° W 23:37:18 10° N
Cosmos 1697 Rocket 2.9 23:32:47 50° SE 23:33:33 54° ESE 23:39:04 10° NNE
Cosmos 1626 4.1 23:36:00 21° NW 23:36:00 21° NW 23:38:13 10° NNW
BREEZE-M R/B 4.1 23:31:45 12° W 23:37:39 47° NNW 23:41:06 10° NE
Cosmos 1812 Rocket 3.5 23:34:29 10° N 23:38:55 80° ENE 23:38:55 80° ENE
SL-19 R/B 4.2 23:34:31 10° NNE 23:40:08 81° ESE 23:41:19 58° S
Cosmos 990 Rocket 4.1 23:36:40 10° NNW 23:41:56 72° ENE 23:43:10 51° SE
Cosmos 2227 Rocket 2.1 23:36:25 10° NNW 23:42:08 88° ENE 23:43:29 54° SSE
USA 81 4.1 23:42:28 58° SSE 23:43:21 71° E 23:48:37 10° N
Cosmos 1825 Rocket 4.1 23:44:53 46° ESE 23:45:05 46° E 23:49:14 10° NNE
Cosmos 1709 Rocket 4.0 23:44:10 50° SSE 23:45:48 75° E 23:51:57 10° N
Cosmos 1602 Rocket 3.7 23:47:23 59° WNW 23:47:23 59° WNW 23:51:27 10° N
SL-08 ROCKET BODY 4.5 23:46:46 50° WSW 23:47:53 59° W 23:53:39 10° N
Alouette 2 Rocket 4.0 23:45:04 10° N 23:50:05 54° ENE 23:50:43 49° ESE
Cosmos 841 Rocket 3.9 23:53:16 46° SE 23:54:12 53° ESE 23:59:16 10° NNE
